www.pogodaiklimat.ru
ПОГОДА в Мэри Эстер
Время
и дата
13:55 29.11
14:42 29.11
14:55 29.11
15:55 29.11
16:55 29.11
17:55 29.11
18:55 29.11
19:55 29.11
20:55 29.11
21:55 29.11
22:55 29.11
23:55 29.11
00:10 30.11
00:55 30.11
01:20 30.11
01:55 30.11
02:28 30.11
02:55 30.11
03:30 30.11
03:55 30.11
04:55 30.11
05:55 30.11
06:50 30.11
06:55 30.11
06:56 30.11
06:57 30.11
06:59 30.11
07:01 30.11
07:06 30.11
07:11 30.11
07:22 30.11
07:36 30.11
07:41 30.11
07:56 30.11
08:03 30.11
08:23 30.11
08:47 30.11
08:52 30.11
08:55 30.11
09:05 30.11
09:28 30.11
09:55 30.11
10:08 30.11
10:55 30.11
11:55 30.11
12:15 30.11
12:55 30.11
13:55 30.11
Ветер
(напр.,м/с)
Видим. Явления Облачность Т
(С)
Тd
(С)
f
(%)
Тe
(С)
Тes
(С)
Комфортность P
(гПа)
Po
(гПа)
Тmin
(С)
Tmax
(С)
R
(мм)
R24
(мм)
S
(см)
ЮВ 5
{9}
16 км 8/8 720 м +22.7 +18.8 79 +29 +29 очень
душно
1015.4 1013.7
ЮВ 6
{10}
16 км 10/10 720 м +22.0 +19.0 83 +27 +27 душно 1015.4 1013.7
ЮВ 7 16 км 10/10 750 м +22.1 +18.9 82 +27 +27 душно 1015.1 1013.3
ЮВ 6 16 км 10/10 720 м +21.9 +18.9 83 +27 +27 душно 1014.7 1013.0
ЮВ 5 16 км 10/10 780 м +21.5 +18.9 85 +26 +26 душно 1015.1 1013.3
ЮВ 3 16 км 10/10 +21.5 +18.9 85 +26 +26 душно 1015.4 1013.7 +21.5 +22.9
ЮВ 6 16 км 8/8 780 м +21.5 +19.0 86 +26 +26 душно 1015.4 1013.7
ЮВ 5 16 км 10/10 +21.7 +19.2 86 +27 +27 душно 1015.7 1014.0
ЮВ 5 16 км 8/8 630 m
[Ac]
+21.8 +19.3 86 +27 +27 душно 1015.7 1014.0
ЮВ 4 16 км 8/8 540 m
[Ac]
+21.7 +19.2 86 +27 +27 душно 1015.7 1014.0
Ю 4 16 км 10/10 570 м +22.0 +19.3 85 +27 +27 душно 1015.4 1013.7
Ю 4 16 км 5/5 540 м +21.7 +19.4 87 +27 +27 душно 1015.0 1013.3 +21.4 +22.0
Ю 5 16 км 8/8 510 м +22.0 +20.0 88 +28 +28 душно 1014.7 1013.0
Ю 6 16 км 10/10 +22.2 +20.3 89 +28 +28 душно 1015.0 1013.3
Ю 6 16 км 8/8 390 м +22.0 +21.0 94 +28 +28 душно 1014.7 1013.0
Ю 7 16 км 10/10 360 м +22.2 +20.6 91 +29 +29 очень
душно
1014.4 1012.7
Ю 5 16 км 10/10 +22.0 +21.0 94 +28 +28 душно 1014.7 1013.0
Ю 5 14 км 8/8 240 м +22.4 +21.0 92 +29 +29 очень
душно
1015.0 1013.3
Ю 5 14 км 2/2 870 м +22.0 +21.0 94 +28 +28 душно 1014.4 1012.7
Ю 5 14 км 2/2 450 м +22.3 +21.1 93 +29 +29 очень
душно
1014.7 1013.0
Ю 4 16 км 2/2 750 м +22.3 +21.1 93 +29 +29 очень
душно
1014.7 1013.0
ЮЗ 5 16 км 8/8 870 м +22.3 +21.1 93 +29 +29 очень
душно
1015.0 1013.3 +21.8 +22.5
Ю 7 16 км гроза 8/8 240 m
[Cb]
+23.0 +21.0 89 +31 +31 очень
душно
1015.0 1013.3
Ю 6 16 км гроза 8/8 240 m
[Cb]
+22.6 +21.4 93 +30 +30 очень
душно
1015.4 1013.7
ЮЗ 6 16 км гроза 8/8 240 m
[Cb]
+23.0 +21.0 89 +31 +31 очень
душно
1015.7 1014.0
ЮЗ 8
{11}
100 м гроза с сильным дождем 8/8 240 m
[Cb]
+23.0 +21.0 89 +31 +31 очень
душно
1015.7 1014.0
ЮЗ 11
{19}
100 м гроза с сильным дождем 8/8 330 m
[Cb]
+23.0 +21.0 89 +31 +31 очень
душно
1016.4 1014.7
ЮЗ 12
{19}
10 км гроза с сильным дождем 5/5 450 m
[Cb]
+23.0 +21.0 89 +31 +31 очень
душно
1017.4 1015.7
ЮЗ 10
{19}
2 км гроза с сильным дождем, дымка 8/8 510 m
[Cb]
+21.0 +19.0 88 +25 +25 комфорт 1016.7 1015.0
ЮЗ 9
{17}
2 км гроза с сильным дождем, туман 8/8 510 m
[Cb]
+20.0 +18.0 88 +22 +22 комфорт 1016.4 1014.7
З 6
{10}
3 км гроза с сильным дождем, дымка 10/10 870 m
[Cb]
+19.0 +18.0 94 +20 +20 1016.7 1015.0
З 4 5 км гроза с дождем, дымка 8/8 960 m
[Cb]
+19.0 +18.0 94 +21 +21 комфорт 1017.1 1015.4
ЮЗ 3 5 км гроза с дождем, дымка 8/8 840 m
[Cb]
+19.0 +18.0 94 +21 +21 комфорт 1017.4 1015.7
ЮЗ 2 6 км гроза со слабым дождем, дымка 10/10
[Cb]
+19.2 +17.9 92 +22 +22 комфорт 1017.4 1015.7
штиль 0 8 км гроза со слабым дождем, дымка 10/10 150 m
[Cb]
+19.0 +18.0 94 +21 +21 комфорт 1017.4 1015.7
З 4 16 км гроза с дождем 10/10 240 m
[Cb]
+19.0 +18.0 94 +21 +21 комфорт 1018.8 1017.1
С 4 8 км гроза с дождем, дымка 8/8 240 m
[Cb]
+19.0 +18.0 94 +21 +21 комфорт 1018.4 1016.7
С 4 8 км гроза с дождем, дымка 8/8 240 m
[Cb]
+19.0 +18.0 94 +21 +21 комфорт 1018.4 1016.7
С 4 10 км гроза с сильным дождем, дымка 10/10 180 m
[Cb]
+19.4 +18.2 93 +22 +22 комфорт 1018.1 1016.4 18.3
С 4 10 км дождь, дымка, гроза 10/10 180 m
[Ns]
+20.0 +18.0 88 +23 +23 комфорт 1018.4 1016.7
СЗ 4 14 км слабый дождь 8/8 210 m
[Ns]
+20.0 +18.0 88 +23 +24 комфорт 1019.4 1017.7
СЗ 3 10 км слабый дождь 10/2 1800 m
[Ac Ns]
+19.5 +18.1 92 +22 +23 комфорт 1020.1 1018.4
СЗ 2 16 км ливневые осадки 8/0 3000 m
[Ac]
+20.0 +18.0 88 +24 +26 комфорт 1020.1 1018.4
С 4 16 км 5/0 4200 m
[Ac]
+20.4 +19.0 92 +24 +27 комфорт 1019.8 1018.1
СВ 6 16 км 8/5 360 m
[Ci]
+22.2 +19.3 84 +28 +29 душно 1019.4 1017.7 +19.1 +22.7 20.8
СВ 6 16 км 5/5 600 м +23.0 +18.0 73 +28 +30 душно 1019.4 1017.7
С 7 16 км 5/2 750 m
[Ci]
+23.5 +16.3 64 +27 +29 душно 1019.1 1017.4
С 6 16 км 5/5 1110 m
[Ci]
+23.6 +15.4 60 +27 +28 жарко 1019.1 1017.4
Местоположение метеостанции Hurlburt Field Airport: широта 30.4167 долгота -86.6833 высота над уровнем моря 12 м.
В архиве по умолчанию представлена погода в Мэри Эстер за последние 1-2 суток. Обновление информации о фактической погоде в базе происходит ежечасно! Архивные данные за месяц целиком и за предыдущие месяцы Вы можете получить, выбрав интересующий диапазон дат из раскрывающегося списка и нажав кнопку "Ввод!".
Внимание! Архив погоды МЕТАР в базе сайта по станциям, не включенным в климатический монитор, хранится не более 60 дней. Нет смысла пытаться выбрать более раннюю дату.
*Определитесь, кто Вы:
Внимание! Время в таблицах - местное (без учета летнего времени). Для получения всемирного времени необходимо вычесть поправку, которая равна -6 ч.
Смотрите также архив погоды в соседних городах и на ближайших метеорологических станциях:
Партнеры нашего сайта:      
Пояснения к столбцам:
  • Ветер - указаны скорость ветра в м/с - средняя за 10 мин, порывы в срок и между сроками (в фигурных скобках) и направление, откуда дует ветер: С - северный,
  • СВ - северо-восточный, В - восточный, ЮВ - юго-восточный, Ю - южный, ЮЗ - юго-западный, З - западный, СЗ - северо-западный.
  • Видимость - горизонтальная дальность видимости в метрах или километрах. При видимости от 1 до 10 км при отсутствии осадков обычно наблюдается дымка, при ухудшении видимости до 1 км и менее - туман. В сухую погоду видимость может ухудшаться дымом, пылью или мглою.
  • Явления - указаны атмосферные явления, наблюдавшиеся в срок или в последний час перед сроком; фигурными скобками обозначены явления, наблюдавшиеся между сроками (за 1-3 часа до срока); квадратными скобками обозначены град или гололедные отложения с указанием их диаметра в мм.
  • Облачность - указаны через наклонную черту общая и нижняя облачность в баллах и высота нижней границы облаков в метрах; квадратными скобками обозначены формы облаков: Ci - перистые, Cs - перисто-слоистые, Cc - перисто-кучевые, Ac - высококучевые, As - высокослоистые, Sc - слоисто-кучевые, Ns - слоисто-дождевые, Cu - кучевые, Cb - кучево-дождевые. Подробнее классификацию облаков см. в Атласе облаков (PDF).
  • T - Температура воздуха - температура, измеренная на высоте 2 м над землей.
  • Td - Температура точки росы - температура, при понижении до которой содержащийся в воздухе водяной пар достигнет насыщения.
  • f - Относительная влажность воздуха - влажноcть воздуха, измеренная на высоте 2 м над землей.
  • Te - Эффективная температура - температура, которую ощущает одетый по сезону человек в тени. Характеристика душности погоды. При расчете учитывается влияние влажности воздуха и скорости ветра на теплоощущения человека.
  • Tes - Эффективная температура на солнце - температура, которую ощущает человек, с поправкой на солнечный нагрев. Характеристика знойности погоды. Зависит от высоты солнца над горизонтом, облачности и скорости ветра. Ночью, в пасмурную погоду, а также при ветре 12 м/с и более поправка равна нулю.
  • P - Атмосферное давление - приведенное к уровню моря атмосферное давление.
  • Po - Атмосферное давление - измеренное на уровне метеостанции атмосферное давление.
  • Tmin - Минимальная температура - минимум температуры воздуха на высоте 2 м над землей.
  • Tmax - Максимальная температура - максимум температуры воздуха на высоте 2 м над землей.
  • R - Количество осадков - Количество выпавших осадков за период времени, мм. При наведении курсора мыши на число - период времени, за который выпало указанное количество осадков.
  • R24 - Количество осадков - Количество выпавших осадков за 24 часа, мм.
  • S - Снежный покров - Высота снежного покрова, см. При наведении курсора мыши на число - состояние снежного покрова и степень покрытия местности в баллах.